CW5049 Weather Reports


Display with metric or nautical units.
time (UTC)temp
F
wind
direction
speed
MPH
gust
MPH
rain 1hr
in
rain 24hr
in
rain mn
in
humidity
%
barometer
mb
20180621025407 86 317 0.0 0.0 0.00 0.00 0.00 39 1012.4
20180621024905 86 317 0.0 1.0 0.00 0.00 0.00 39 1012.4
20180621024357 85 317 0.0 1.0 0.00 0.00 0.00 41 1012.3
20180621023852 85 317 0.0 1.0 0.00 0.00 0.00 41 1012.3
20180621023335 85 317 0.0 1.0 0.00 0.00 0.00 40 1012.3
20180621022835 84 317 0.0 1.0 0.00 0.00 0.00 42 1012.3
20180621022311 84 317 0.0 1.0 0.00 0.00 0.00 42 1012.3
20180621021805 84 317 0.0 1.0 0.00 0.00 0.00 41 1012.3
20180621021236 84 317 0.0 1.0 0.00 0.00 0.00 44 1012.3
20180621020736 84 316 0.0 1.0 0.00 0.00 0.00 43 1012.5
20180621020235 84 316 0.0 0.0 0.00 0.00 0.00 43 1012.5
20180621015733 83 316 0.0 3.0 0.00 0.00 0.00 43 1012.4
20180621015223 83 316 1.0 4.0 0.00 0.00 0.00 45 1012.5
20180621014723 83 316 1.0 4.0 0.00 0.00 0.00 42 1012.5
20180621014222 83 316 0.0 2.0 0.00 0.00 0.00 46 1012.6
20180621013721 83 316 0.0 1.0 0.00 0.00 0.00 45 1012.4
20180621013204 83 316 0.0 0.0 0.00 0.00 0.00 46 1012.4
20180621012705 84 316 0.0 0.0 0.00 0.00 0.00 45 1012.4
20180621012151 83 316 0.0 0.0 0.00 0.00 0.00 45 1012.3
20180621011645 83 313 0.0 3.0 0.00 0.00 0.00 46 1012.3
20180621011130 83 313 0.0 3.0 0.00 0.00 0.00 45 1012.3
20180621010627 84 313 0.0 1.0 0.00 0.00 0.00 45 1012.3
20180621010128 84 313 0.0 1.0 0.00 0.00 0.00 44 1012.3
20180621005612 84 313 0.0 1.0 0.00 0.00 0.00 44 1012.3
20180621005110 84 309 0.0 4.0 0.00 0.00 0.00 44 1012.3
20180621004609 84 331 1.0 4.0 0.00 0.00 0.00 45 1012.3
20180621004058 85 329 1.0 5.0 0.00 0.00 0.00 44 1012.4
20180621003543 85 327 1.0 5.0 0.00 0.00 0.00 43 1012.4
20180621003044 85 322 0.0 5.0 0.00 0.00 0.00 42 1012.4
20180621002534 86 323 0.0 3.0 0.00 0.00 0.00 41 1012.7
20180621002035 86 333 0.0 4.0 0.00 0.00 0.00 40 1012.7
20180621001533 86 329 1.0 5.0 0.00 0.00 0.00 43 1012.7
20180621001023 85 313 1.0 5.0 0.00 0.00 0.00 42 1012.8
20180621000523 85 304 1.0 5.0 0.00 0.00 0.00 42 1012.8
20180621000025 84 291 0.0 1.0 0.00 0.00 0.00 44 1012.8
20180620235521 84 294 0.0 2.0 0.00 0.00 0.00 43 1012.9
20180620235009 85 293 0.0 4.0 0.00 0.00 0.00 42 1012.9
20180620234509 86 300 0.0 4.0 0.00 0.00 0.00 43 1013.0
20180620234011 86 311 0.0 1.0 0.00 0.00 0.00 43 1013.0
20180620233511 85 304 0.0 5.0 0.00 0.00 0.00 43 1012.9
20180620232948 84 300 1.0 5.0 0.00 0.00 0.00 43 1012.9
20180620232442 84 298 1.0 5.0 0.00 0.00 0.00 43 1013.0
20180620231939 84 244 0.0 3.0 0.00 0.00 0.00 43 1013.0
20180620230543 84 351 1.0 5.0 0.00 0.00 0.00 44 1012.9
20180620230039 84 288 1.0 8.0 0.00 0.00 0.00 43 1012.9
20180620225532 84 302 2.0 8.0 0.00 0.00 0.00 44 1013.1
20180620225027 84 319 1.0 5.0 0.00 0.00 0.00 45 1013.1
20180620224511 84 323 1.0 7.0 0.00 0.00 0.00 44 1013.1
20180620224003 85 290 0.0 7.0 0.00 0.00 0.00 44 1013.2
20180620223503 84 313 0.0 2.0 0.00 0.00 0.00 43 1013.2
20180620222956 84 13 0.0 2.0 0.00 0.00 0.00 43 1013.2
20180620222436 82 292 0.0 3.0 0.00 0.00 0.00 46 1013.3
20180620221937 82 287 0.0 3.0 0.00 0.00 0.00 47 1013.2
20180620221431 81 273 0.0 3.0 0.00 0.00 0.00 48 1013.2
20180620220926 81 271 0.0 1.0 0.00 0.00 0.00 49 1013.2
20180620220426 81 271 0.0 0.0 0.00 0.00 0.00 48 1013.2
20180620215912 81 271 0.0 1.0 0.00 0.00 0.00 49 1013.2
20180620215401 81 318 0.0 1.0 0.00 0.00 0.00 48 1013.3
20180620214857 82 318 0.0 1.0 0.00 0.00 0.00 49 1013.4
20180620214351 83 318 0.0 1.0 0.00 0.00 0.00 47 1013.4
20180620213840 83 318 0.0 0.0 0.00 0.00 0.00 47 1013.8
20180620213332 82 318 0.0 1.0 0.00 0.00 0.00 49 1013.8
20180620212826 82 317 0.0 1.0 0.00 0.00 0.00 49 1013.8
20180620212323 81 322 0.0 0.0 0.00 0.00 0.00 52 1013.7
20180620211819 81 322 0.0 0.0 0.00 0.00 0.00 54 1013.7
20180620211319 80 322 0.0 0.0 0.00 0.00 0.00 53 1013.7
20180620210813 80 322 0.0 1.0 0.00 0.00 0.00 54 1013.7
20180620210301 80 322 0.0 1.0 0.00 0.00 0.00 52 1013.7
20180620205747 81 322 0.0 0.0 0.00 0.00 0.00 52 1013.7
20180620205232 81 322 0.0 0.0 0.00 0.00 0.00 52 1013.7
20180620204731 80 322 0.0 1.0 0.00 0.00 0.00 53 1013.7
20180620204231 80 322 0.0 1.0 0.00 0.00 0.00 54 1013.7
20180620203731 79 322 0.0 1.0 0.00 0.00 0.00 55 1013.7
20180620203231 80 321 0.0 1.0 0.00 0.00 0.00 54 1013.7
20180620202731 79 321 0.0 1.0 0.00 0.00 0.00 55 1013.7
20180620202220 79 321 0.0 1.0 0.00 0.00 0.00 56 1013.7
20180620201719 80 321 0.0 1.0 0.00 0.00 0.00 54 1013.8
20180620201216 80 324 0.0 1.0 0.00 0.00 0.00 57 1013.8
20180620200717 79 318 0.0 1.0 0.00 0.00 0.00 58 1013.7
20180620200211 78 318 0.0 1.0 0.00 0.00 0.00 56 1013.7
20180620195707 78 317 0.0 2.0 0.00 0.00 0.00 55 1013.7
20180620195155 78 321 0.0 2.0 0.00 0.00 0.00 57 1013.8
20180620194655 78 323 0.0 4.0 0.00 0.00 0.00 57 1013.8
20180620194135 78 326 0.0 5.0 0.00 0.00 0.00 58 1013.8
20180620193637 78 317 0.0 5.0 0.00 0.00 0.00 57 1013.9
20180620193128 78 302 0.0 5.0 0.00 0.00 0.00 59 1013.8
20180620192627 78 302 1.0 6.0 0.00 0.00 0.00 58 1014.0
20180620192125 78 302 1.0 6.0 0.00 0.00 0.00 58 1014.0
20180620191625 78 283 1.0 6.0 0.00 0.00 0.00 59 1014.1
20180620191115 78 248 1.0 7.0 0.00 0.00 0.00 57 1014.0
20180620190614 78 270 1.0 7.0 0.00 0.00 0.00 57 1014.0
20180620190114 78 254 1.0 6.0 0.00 0.00 0.00 58 1014.0
20180620185612 78 258 1.0 6.0 0.00 0.00 0.00 59 1014.1
20180620185113 78 267 2.0 7.0 0.00 0.00 0.00 58 1014.1
20180620184602 78 272 1.0 7.0 0.00 0.00 0.00 59 1014.2
20180620184059 78 251 1.0 7.0 0.00 0.00 0.00 60 1014.1
20180620183601 77 252 2.0 7.0 0.00 0.00 0.00 61 1014.0
20180620183041 78 280 1.0 7.0 0.00 0.00 0.00 61 1014.0
20180620182539 78 291 1.0 7.0 0.00 0.00 0.00 61 1014.1
20180620182034 77 274 1.0 7.0 0.00 0.00 0.00 62 1014.1
20180620181534 77 235 2.0 8.0 0.00 0.00 0.00 62 1014.1
20180620181033 77 298 2.0 8.0 0.00 0.00 0.00 63 1014.0
20180620180508 77 306 2.0 8.0 0.00 0.00 0.00 62 1014.0
20180620180009 77 302 1.0 8.0 0.00 0.00 0.00 62 1014.0
20180620175446 77 302 1.0 6.0 0.00 0.00 0.00 61 1014.1
20180620174941 77 315 1.0 5.0 0.00 0.00 0.00 62 1014.1
20180620174439 77 314 1.0 6.0 0.00 0.00 0.00 63 1014.1
20180620173929 76 296 1.0 6.0 0.00 0.00 0.00 63 1014.2
20180620173429 77 302 1.0 6.0 0.00 0.00 0.00 60 1014.2
20180620172928 77 294 1.0 6.0 0.00 0.00 0.00 60 1014.2
20180620172407 78 303 0.0 6.0 0.00 0.00 0.00 60 1014.3
20180620171907 78 306 0.0 4.0 0.00 0.00 0.00 60 1014.3
20180620171401 78 306 1.0 4.0 0.00 0.00 0.00 59 1014.2
20180620170858 78 323 0.0 4.0 0.00 0.00 0.00 59 1014.2
20180620170359 77 323 0.0 5.0 0.00 0.00 0.00 63 1014.2
20180620165850 76 323 1.0 5.0 0.00 0.00 0.00 63 1014.1
20180620165336 75 318 0.0 4.0 0.00 0.00 0.00 65 1014.2
20180620164836 74 300 0.0 1.0 0.00 0.00 0.00 66 1014.2
20180620164334 74 297 0.0 1.0 0.00 0.00 0.00 66 1014.2
20180620163833 74 297 1.0 5.0 0.00 0.00 0.00 66 1014.4
20180620163331 74 297 1.0 5.0 0.00 0.00 0.00 66 1014.5
20180620162830 75 309 1.0 5.0 0.00 0.00 0.00 65 1014.5
20180620162331 74 339 1.0 5.0 0.00 0.00 0.00 67 1014.7
20180620161826 74 310 0.0 4.0 0.00 0.00 0.00 67 1014.5
20180620161314 74 309 1.0 4.0 0.00 0.00 0.00 68 1014.5
20180620160801 74 309 1.0 4.0 0.00 0.00 0.00 68 1014.5
20180620160255 74 304 0.0 4.0 0.00 0.00 0.00 67 1014.5
20180620155753 73 218 0.0 4.0 0.00 0.00 0.00 68 1014.5
20180620155242 72 215 0.0 4.0 0.00 0.00 0.00 67 1014.5
20180620154735 73 213 0.0 4.0 0.00 0.00 0.00 66 1014.5
20180620154229 74 211 0.0 4.0 0.00 0.00 0.00 63 1014.5
20180620153729 75 148 0.0 0.0 0.00 0.00 0.00 62 1014.7
20180620153228 75 148 0.0 0.0 0.00 0.00 0.00 62 1014.7
20180620152728 74 148 0.0 0.0 0.00 0.00 0.00 63 1014.5
20180620152224 73 148 0.0 0.0 0.00 0.00 0.00 64 1014.5
20180620151721 72 148 0.0 0.0 0.00 0.00 0.00 66 1014.5
20180620151200 72 148 0.0 0.0 0.00 0.00 0.00 67 1014.4
20180620150637 71 148 0.0 0.0 0.00 0.00 0.00 67 1014.4
20180620150136 71 148 0.0 0.0 0.00 0.00 0.00 68 1014.4
20180620145634 70 148 0.0 0.0 0.00 0.00 0.00 71 1014.4
20180620145126 70 148 0.0 0.0 0.00 0.00 0.00 70 1014.3
20180620144624 69 148 0.0 0.0 0.00 0.00 0.00 71 1014.3
20180620144112 69 148 0.0 0.0 0.00 0.00 0.00 71 1014.3
20180620143611 69 148 0.0 0.0 0.00 0.00 0.00 73 1014.3
20180620143106 68 148 0.0 1.0 0.00 0.00 0.00 74 1014.3
20180620142557 68 148 0.0 1.0 0.00 0.00 0.00 74 1014.2
20180620142048 68 148 0.0 0.0 0.00 0.00 0.00 73 1014.2
20180620141520 67 148 0.0 0.0 0.00 0.00 0.00 73 1014.2
20180620141014 67 148 0.0 0.0 0.00 0.00 0.00 75 1014.0
20180620140508 66 148 0.0 0.0 0.00 0.00 0.00 75 1014.0
20180620140004 66 148 0.0 0.0 0.00 0.00 0.00 75 1013.9
20180620135459 65 148 0.0 0.0 0.00 0.00 0.00 76 1013.8
20180620134958 65 148 0.0 0.0 0.00 0.00 0.00 76 1013.8
20180620134458 65 148 0.0 0.0 0.00 0.00 0.00 76 1013.8
20180620133940 65 148 0.0 0.0 0.00 0.00 0.00 77 1013.7
20180620132937 65 132 0.0 0.0 0.00 0.00 0.00 77 1013.7
20180620132428 65 132 0.0 0.0 0.00 0.00 0.00 77 1013.8
20180620131921 65 132 0.0 0.0 0.00 0.00 0.00 78 1013.8
20180620131412 65 132 0.0 0.0 0.00 0.00 0.00 78 1013.8
20180620130907 65 132 0.0 0.0 0.00 0.00 0.00 78 1013.8
20180620130327 64 132 0.0 0.0 0.00 0.00 0.00 78 1013.8
20180620125829 64 132 0.0 0.0 0.00 0.00 0.00 79 1013.8
20180620125322 64 121 0.0 0.0 0.00 0.00 0.00 79 1013.6
20180620124818 64 121 0.0 0.0 0.00 0.00 0.00 79 1013.6
20180620124314 64 121 0.0 0.0 0.00 0.00 0.00 79 1013.6
20180620123751 63 121 0.0 0.0 0.00 0.00 0.00 80 1013.7
20180620123226 63 121 0.0 0.0 0.00 0.00 0.00 81 1013.7
20180620122718 63 121 0.0 0.0 0.00 0.00 0.00 81 1013.7
20180620122139 63 121 0.0 0.0 0.00 0.00 0.00 81 1013.6
20180620121634 63 121 0.0 0.0 0.00 0.00 0.00 81 1013.6
20180620121134 63 121 0.0 0.0 0.00 0.00 0.00 81 1013.7
20180620120630 63 121 0.0 0.0 0.00 0.00 0.00 80 1013.7
20180620120100 63 121 0.0 0.0 0.00 0.00 0.00 81 1013.7
20180620115552 63 121 0.0 0.0 0.00 0.00 0.00 81 1013.7
20180620115046 63 121 0.0 0.0 0.00 0.00 0.00 81 1013.7
20180620114535 63 121 0.0 0.0 0.00 0.00 0.00 81 1013.7
20180620114031 64 121 0.0 0.0 0.00 0.00 0.00 81 1013.9
20180620113529 64 121 0.0 0.0 0.00 0.00 0.00 81 1013.9
20180620112952 64 121 0.0 0.0 0.00 0.00 0.00 81 1013.9
20180620112445 64 121 0.0 0.0 0.00 0.00 0.00 81 1013.9
20180620111930 64 121 0.0 0.0 0.00 0.00 0.00 81 1013.9
20180620111428 64 121 0.0 0.0 0.00 0.00 0.00 80 1014.0
20180620110902 64 121 0.0 0.0 0.00 0.00 0.00 80 1014.1
20180620110403 64 121 0.0 0.0 0.00 0.00 0.00 80 1014.1
20180620105845 65 121 0.0 0.0 0.00 0.00 0.00 79 1014.1
20180620105336 65 121 0.0 0.0 0.00 0.00 0.00 79 1014.2
20180620104832 65 121 0.0 0.0 0.00 0.00 0.00 78 1014.2
20180620104319 66 121 0.0 0.0 0.00 0.00 0.00 77 1014.2
20180620103747 66 121 0.0 0.0 0.00 0.00 0.00 76 1014.2
20180620103238 67 121 0.0 0.0 0.00 0.00 0.00 75 1014.3
20180620102723 67 121 0.0 0.0 0.00 0.00 0.00 74 1014.3
20180620102209 67 121 0.0 0.0 0.00 0.00 0.00 72 1014.3
20180620101655 67 121 0.0 0.0 0.00 0.00 0.00 72 1014.3
20180620101142 67 121 0.0 0.0 0.00 0.00 0.00 72 1014.3
20180620100627 67 121 0.0 0.0 0.00 0.00 0.00 72 1014.4
20180620100118 67 121 0.0 0.0 0.00 0.00 0.00 72 1014.4
20180620095610 67 121 0.0 0.0 0.00 0.00 0.00 72 1014.4
20180620095056 67 121 0.0 0.0 0.00 0.00 0.00 72 1014.4
20180620094543 67 121 0.0 0.0 0.00 0.00 0.00 72 1014.4
20180620094036 67 121 0.0 0.0 0.00 0.00 0.00 72 1014.4
20180620093519 67 121 0.0 0.0 0.00 0.00 0.00 72 1014.4
20180620093015 67 121 0.0 0.0 0.00 0.00 0.00 72 1014.4
20180620092449 67 121 0.0 0.0 0.00 0.00 0.00 72 1014.5
20180620091950 67 121 0.0 0.0 0.00 0.00 0.00 72 1014.5
20180620091424 68 121 0.0 0.0 0.00 0.00 0.00 73 1014.5
20180620090920 68 121 0.0 0.0 0.00 0.00 0.00 73 1014.7
20180620090420 68 121 0.0 0.0 0.00 0.00 0.00 72 1014.7
20180620085913 68 121 0.0 0.0 0.00 0.00 0.00 72 1014.7
20180620085412 68 121 0.0 0.0 0.00 0.00 0.00 71 1014.9
20180620084856 69 121 0.0 0.0 0.00 0.00 0.00 71 1014.9
20180620084330 69 121 0.0 0.0 0.00 0.00 0.00 70 1014.9
20180620083828 69 121 0.0 0.0 0.00 0.00 0.00 70 1015.0
20180620083324 70 121 0.0 0.0 0.00 0.00 0.00 69 1015.0
20180620082801 70 121 0.0 0.0 0.00 0.00 0.00 69 1015.0
20180620082228 70 121 0.0 1.0 0.00 0.00 0.00 68 1015.0
20180620081718 70 121 0.0 0.0 0.00 0.00 0.00 67 1015.0
20180620081202 70 121 0.0 0.0 0.00 0.00 0.00 68 1015.0
20180620080656 70 121 0.0 0.0 0.00 0.00 0.00 68 1015.1
20180620080140 70 121 0.0 0.0 0.00 0.00 0.00 68 1015.1
20180620075636 70 121 0.0 0.0 0.00 0.00 0.00 67 1015.1
20180620075113 70 121 0.0 0.0 0.00 0.00 0.00 67 1015.2
20180620074552 70 121 1.0 5.0 0.00 0.00 0.00 67 1015.2
20180620074043 70 121 1.0 5.0 0.00 0.00 0.00 68 1015.3
20180620073525 70 121 0.0 2.0 0.00 0.00 0.00 68 1015.3
20180620073025 70 121 0.0 0.0 0.00 0.00 0.00 69 1015.3
20180620072504 70 121 0.0 0.0 0.00 0.00 0.00 69 1015.6
20180620072000 70 121 0.0 0.0 0.00 0.00 0.00 69 1015.6
20180620071448 70 121 0.0 0.0 0.00 0.00 0.00 69 1015.6
20180620070929 70 121 1.0 7.0 0.00 0.00 0.00 69 1015.6
20180620070424 70 121 1.0 7.0 0.00 0.00 0.00 69 1015.6
20180620065925 70 104 1.0 5.0 0.00 0.00 0.00 69 1015.6
20180620065421 70 103 1.0 6.0 0.00 0.00 0.00 69 1015.7
20180620064916 70 100 1.0 6.0 0.00 0.00 0.00 69 1015.7
20180620064410 70 103 1.0 5.0 0.00 0.00 0.00 69 1015.7
20180620063903 70 98 1.0 5.0 0.00 0.00 0.00 69 1015.7
20180620063332 70 76 1.0 4.0 0.00 0.00 0.00 69 1015.7
20180620062829 70 74 0.0 4.0 0.00 0.00 0.00 69 1015.7
20180620062329 70 48 0.0 1.0 0.00 0.00 0.00 69 1015.7
20180620061827 70 45 0.0 0.0 0.00 0.00 0.00 69 1015.7
20180620061329 71 45 0.0 0.0 0.00 0.00 0.00 68 1015.7
20180620060805 71 45 0.0 0.0 0.00 0.00 0.00 68 1015.8
20180620060301 71 45 0.0 0.0 0.00 0.00 0.00 67 1015.8
20180620055749 71 45 0.0 0.0 0.00 0.00 0.00 67 1015.8
20180620055237 71 45 0.0 0.0 0.00 0.00 0.00 66 1015.9
20180620054737 71 45 0.0 0.0 0.00 0.00 0.00 66 1015.9
20180620054237 71 45 0.0 1.0 0.00 0.00 0.00 66 1015.9
20180620053736 71 45 0.0 1.0 0.00 0.00 0.00 66 1015.9
20180620053237 71 45 0.0 0.0 0.00 0.00 0.00 65 1015.9
20180620052733 72 45 0.0 0.0 0.00 0.00 0.00 65 1015.9
20180620052208 72 45 0.0 0.0 0.00 0.00 0.00 62 1015.9
20180620051709 73 45 0.0 0.0 0.00 0.00 0.00 62 1015.9
20180620051208 73 45 0.0 0.0 0.00 0.00 0.00 61 1016.0
20180620050648 73 45 0.0 3.0 0.00 0.00 0.00 61 1015.9
20180620050131 74 45 0.0 3.0 0.00 0.00 0.00 61 1015.9
20180620045617 74 39 0.0 3.0 0.00 0.00 0.00 60 1015.8
20180620045045 75 287 0.0 0.0 0.00 0.00 0.00 58 1015.8
20180620044541 75 287 0.0 0.0 0.00 0.00 0.00 56 1015.9
20180620044039 75 287 0.0 0.0 0.00 0.00 0.00 56 1015.9
20180620043537 76 287 0.0 0.0 0.00 0.00 0.00 55 1015.9
20180620043001 76 287 0.0 0.0 0.00 0.00 0.00 53 1015.9
20180620042501 76 287 0.0 0.0 0.00 0.00 0.00 51 1015.9
20180620041953 77 287 0.0 0.0 0.00 0.00 0.00 49 1015.9
20180620041453 77 287 0.0 0.0 0.00 0.00 0.00 48 1016.0
20180620040930 78 287 0.0 0.0 0.00 0.00 0.00 47 1015.9
20180620040425 78 287 0.0 0.0 0.00 0.00 0.00 47 1015.9
20180620035915 78 287 0.0 0.0 0.00 0.00 0.00 46 1015.9
20180620035409 78 0.0 0.0 0.00 0.00 0.00 46